049  
ASUS41 KOKX 021004  
RWROKX  
 
REGIONAL WEATHER ROUNDUP  
NATIONAL WEATHER SERVICE NEW YORK NY  
600 AM EDT WED SEP 02 2015  
 
NOTE: "FAIR" INDICATES FEW OR NO CLOUDS BELOW 12,000 FEET WITH NO  
SIGNIFICANT WEATHER AND/OR S TO VISIBILITY
.  
 
NYZ071-072-176-178-NJZ106-104-021100-  
NEW YORK CITY METRO AREA  
 
 
CITY SKY/WX TMP DP RH WIND PRES REMARKS
 
CENTRAL PARK CLEAR 74 65 73 CALM 30.05S  
LAGUARDIA APRT PTCLDY 75 66 73 CALM 30.01S  
KENNEDY INTL CLEAR 71 68 90 S5 30.03S  
NEWARK/LIBERTY PTCLDY 72 67 84 CALM 30.02S  
BRNX BOT. GARD N/A 70 64 83 NE2 30.04S  
TETERBORO CLEAR 70 64 81 CALM 30.01S  

 
 
NYZ177-179-078>081-021100-  
LONG ISLAND NEW YORK  
 
CITY SKY/WX TMP DP RH WIND PRES REMARKS
 
FARMINGDALE FOG 70 67 90 CALM 30.03R VSB 1/4  
ISLIP PTCLDY 67 65 93 CALM 30.01S FOG  
SHIRLEY CLOUDY 63 61 93 CALM 30.03S FOG  
WESTHAMPTON FOG 64 63 96 CALM 30.04S VSB<1/4  
MONTAUK POINT N/A 70 68 93 CALM 30.04S  

 
 
NYZ052-065-067-021100-  
HUDSON VALLEY  
 
CITY SKY/WX TMP DP RH WIND PRES REMARKS
 
WHITE PLAINS CLEAR 67 64 90 CALM 30.03R FOG  
NEWBURGH CLEAR 64 64 100 CALM 30.04S  
MONTGOMERY PTCLDY 61 60 97 CALM 30.03S FOG  
POUGHKEEPSIE CLEAR 60 57 89 CALM 30.02S  
ALBANY CLEAR 64 60 87 CALM 30.02S  

 
 
NJZ001-105-106-008-010-013-015-019>022-104-021100-  
NEW JERSEY  
 
CITY SKY/WX TMP DP RH WIND PRES REMARKS
 
NEWARK/LIBERTY PTCLDY 72 67 84 CALM 30.02S  
TETERBORO CLEAR 70 64 81 CALM 30.01S  
CALDWELL CLEAR 65 62 90 CALM 30.03S  
MORRISTOWN FOG 59 55 88 CALM 30.03S VSB 1/4  
SOMERVILLE PTCLDY 62 60 93 CALM 30.01S FOG  
SUSSEX CLEAR 59 57 93 CALM 30.04S  
ANDOVER N/A 61 60 97 CALM 30.05S  
TRENTON CLOUDY 69 67 93 CALM 30.03R FOG  
MILLVILLE FOG 67 66 97 CALM 30.03R VSB 1  
ATLANTIC CITY FOG 68 68 100 CALM 30.03R VSB<1/4  
WRIGHTSTOWN FOG 69 69 100 E2 30.01R VSB 1/4  
TOMS RIVER CLOUDY 68 66 94 CALM 30.04R VSB<1/4  
BELMAR PTCLDY 70 63 78 CALM 30.04R  

 
 
PAZ047>061-062-071-021100-  
EASTERN PENNSYLVANIA  
 
CITY SKY/WX TMP DP RH WIND PRES REMARKS
 
PHILADELPHIA PTCLDY 74 69 85 NW3 30.03S FOG  
ALLENTOWN CLEAR 64 61 90 CALM 30.04S FOG  
SCRANTON CLEAR 64 60 87 SE3 30.06S  

 
 
CTZ002-004>006-009-010-012-RIZ004-006-007-MAZ004-011-015-021100-  
SOUTHERN NEW ENGLAND  
IN CT  
 
CITY SKY/WX TMP DP RH WIND PRES REMARKS
 
BRADLEY INTL PTCLDY 61 59 93 CALM 30.01S  
HARTFORD CLEAR 67 65 93 CALM 30.01S  
DANBURY CLEAR 60 56 86 SW3 30.05S  
WTRBRY/OXFORD CLEAR 63 55 77 CALM 30.05S  
BRIDGEPORT CLEAR 68 64 87 N3 30.02S  
MERIDEN CLEAR 62 59 90 CALM 30.02S FOG  
NEW HAVEN CLEAR 64 63 96 CALM 30.03R FOG  
CHESTER NOT AVBL  
GROTON CLOUDY 66 65 96 CALM 30.02S  
WILLIMANTIC FOG 62 61 96 CALM 30.03S VSB 1/4  
 
IN RI  
 
CITY SKY/WX TMP DP RH WIND PRES REMARKS
 
PROVIDENCE MOCLDY 66 65 96 S5 30.02S FOG  
BLOCK ISLAND CLEAR 68 68 100 SW7 30.03S  
WESTERLY CLOUDY 60 58 92 CALM 30.03S FOG  
 
IN MA  
 
CITY SKY/WX TMP DP RH WIND PRES REMARKS
 
BOSTON CLEAR 67 63 87 SW7 30.00S  
WORCESTER CLEAR 64 60 87 W8 30.03S  
WESTFIELD PTCLDY 59 57 93 CALM 30.02S FOG  
PROVINCETOWN N/A 66 61 82 S9 30.01F  
NANTUCKET CLEAR 65 62 90 S6 30.03S  

 
 
ANZ330-335-338-340-345-350-353-355-021100-  
COASTAL MARINE OBSERVATIONS  
 
 
STATION/POSITION TIME SKY/WX TEMP WIND PRES VSBY WAVE
 
AIR SEA DIR/SP/G HT/PER  
(UTC) (F) (DEG/KT/KT) (MB) (MI) (FT/S)  
NY HARB ENTRANCE 0850 75 76 210/ 2/ 2 1016.5 1/ 8  
4S FIRE IS NOT AVBL  
20S FIRE ISLAND 0850 73 74 CALM 1016.6 2/14  
GREAT SOUTH BAY 0900 75 78 240/ 4/ 6 N/A  
23SW MTP 0950 72 72 240/ 2/ 2 1016.6 2/ 8  
HUDSON CANYON NOT AVBL  
KINGS POINT 0900 72 74 170/ 3/ 4 1015.7  
EXECUTION ROCKS 0900 73 180/ 4/ 4 N/A  
CENTRAL LI SOUND NOT AVBL  
EASTERN LI SOUND 0900 71 70 220/ 4/ 4 N/A  
ROBBINS REEF 0900 74 190/ 5/ 5 1015.5  

 
 
>>>>>>>>>>>>>>>>>>>>>>>>>>>> KEY <<<<<<<<<<<<<<<<<<<<<<<<<<<  
> <  
> SKY/WX - SKY CONDITION/PRESENT WEATHER <  
> TMP - TEMPERATURE IN FAHRENHEIT <  
> DP - DEWPOINT IN FAHRENHEIT <  
> RH - RELATIVE HUMIDITY IN PERCENT <  
> WIND - DIRECTION AND SPEED IN MPH <  
> PRES - MEAN SEA LEVEL PRESSURE IN INCHES OF HG <  
> WCI - WIND CHILL INDEX <  
> VSB - VISIBILITY IN MILES <  
> HX - HEAT INDEX <  
> TC - TEMPERATURE IN CELSIUS <  
> VRB - VARIABLE WIND DIRECTION <  
> <  
>>>>>>>>>>>>>>>>>>>>>>>>>>>> KEY <<<<<<<<<<<<<<<<<<<<<<<<<<<  
 
CLICK HERE TO GO TO PREVIOUS BULLETINS.

The Nexlab NY Page
The Nexlab NJ Page
The Nexlab CT Page Main Text Page